Regional Weather Roundup
Issued by NWS

Home | Current Version | Previous Version | Text Only | Print | Product List | Glossary On
Versions: 1 2 3 4 5 6 7 8 9 10 11 12 13 14 15 16 17 18 19 20 21 22 23 24 25 26 27 28 29 30 31 32 33 34 35 36 37 38 39 40 41 42 43 44 45 46 47 48 49 50
000
ASUS45 KABQ 282001
RWRNM
NEW MEXICO REGIONAL WEATHER ROUNDUP
NATIONAL WEATHER SERVICE ALBUQUERQUE NM
200 PM MDT FRI AUG 28 2015

NOTE: "FAIR" MEANS FEW OR NO CLOUDS BELOW 12,000 FEET AGL WITH NO
       SIGNIFICANT WEATHER OR OBSTRUCTIONS TO VISION.

      THIS PRODUCT IS RELEASED AS TWO VERSIONS.  ONE VERSION NEAR
      THE TOP OF THE HOUR CONTAINING PRELIMINARY DATA FROM ALBUQUERQUE
      AND OTHER STATIONS.  A FINAL VERSION WITH ADDITIONAL DATA IS
      ISSUED ABOUT 10 MINUTES AFTER THE HOUR.

NMZ501-503-504-510>518-282100-
NORTHWEST PLATEAU/NORTHCENTRAL MOUNTAINS

CITY           SKY/WX    TMP DP  RH WIND       PRES   REMARKS
FARMINGTON     SUNNY     86  47  25 VRB7      30.19F
SANTA FE       MOSUNNY   83  41  22 N16       30.23F
TAOS           MOSUNNY   81  37  21 NE6G17    30.30F

$$
NMZ402-403-502-505>509-282100-
WESTCENTRAL MOUNTAINS/SOUTHWEST MOUNTAINS

CITY           SKY/WX    TMP DP  RH WIND       PRES   REMARKS
GALLUP         MOSUNNY   83  43  24 NW8G17    30.28F
GRANTS         MOSUNNY   82  46  28 N9G16     30.28F
SILVER CITY      N/A     86  45  23 SW8       30.20F

$$
NMZ407-409-411-412-282100-
SOUTHERN DESERTS

CITY           SKY/WX    TMP DP  RH WIND       PRES   REMARKS
DEMING         SUNNY     91  51  25 MISG      30.09F
HOLLOMAN AFB   SUNNY     95  50  21 N3        30.04F
ALAMOGORDO     MOSUNNY   91  48  22 NE6       30.07F
T OR C         MOSUNNY   87  50  27 VRB5      30.12F

$$
NMZ519>523-282100-
CENTRAL VALLEYS/CENTRAL HIGHLANDS

CITY           SKY/WX    TMP DP  RH WIND       PRES   REMARKS
ALBUQUERQUE    PTSUNNY   88  50  27 NW9       30.18F
DOUBLE EAGLE   PTSUNNY   86  48  26 NW12      30.22F
MORIARTY ARPT  FAIR      79  45  30 NW3       30.24F
CLINES CORNERS MOSUNNY   81  49  32 SE10      30.28F
BELEN          FAIR      88  45  22 W3        30.16F
SOCORRO        NOT AVBL

$$
NMZ524>526-539-540-282100-
SOUTHCENTRAL MOUNTAINS

CITY           SKY/WX    TMP DP  RH WIND       PRES   REMARKS
RUIDOSO        MOSUNNY   77  48  36 MISG      30.30F

$$
NMZ527>531-282100-
NORTHEAST HIGHLANDS/NORTHEAST PLAINS

CITY           SKY/WX    TMP DP  RH WIND       PRES   REMARKS
LAS VEGAS      PTSUNNY   75  47  36 NE12      30.30F
RATON          MOSUNNY   84  43  23 N10G21    30.24F
CLAYTON        MOSUNNY   84  57  39 E7G17     30.18F

$$
NMZ532>537-282100-
EASTCENTRAL PLAINS

CITY           SKY/WX    TMP DP  RH WIND       PRES   REMARKS
TUCUMCARI      MOSUNNY   92  54  27 E14       30.08F
CANNON AFB     MOSUNNY   89  56  32 E12G21    30.09F
CLOVIS AIRPORT MOSUNNY   90  57  33 NE8G21    30.10F

$$
NMZ028-029-538-282100-
SOUTHEAST PLAINS

CITY           SKY/WX    TMP DP  RH WIND       PRES   REMARKS
ROSWELL        SUNNY     94  55  26 N8        30.03F
ARTESIA        SUNNY     93  55  27 VRB7      30.03F
CARLSBAD       SUNNY     99  52  20 N9        29.99F HX  96
HOBBS          MOSUNNY   93  50  22 SW8       30.02F


$$



USA.gov is the U.S. government's official web portal to all federal, state and local government web resources and services.